EZY4PL LGKR-LGSK

Flight info

Callsign EZY4PL
Flight time 0h 32m
Altitude 29000
Route PARAX1V PARAX UM600 TSL DCT
Aircraft A320/M-V/N

Departure

Time 2026-04-22 13:58
Airport Corfu Ioannis Kapodistrias International Airport (LGKR)

Arrival

Time 2026-04-22 14:30
Airport Skiathos Island National Airport (LGSK)
Time Latitude Longitude Altitude Speed Heading
2026-04-22 13:42 39.60706 19.91349 19 ft 0 kts 79°
2026-04-22 13:50 39.60705 19.91342 19 ft 2 kts 80°
2026-04-22 13:50 39.60702 19.91317 19 ft 3 kts 82°
2026-04-22 13:51 39.60699 19.91291 21 ft 3 kts 83°
2026-04-22 13:51 39.60696 19.91265 22 ft 3 kts 81°
2026-04-22 13:51 39.60692 19.91240 22 ft 3 kts 65°
2026-04-22 13:51 39.60684 19.91222 20 ft 2 kts
2026-04-22 13:52 39.60680 19.91221 21 ft 0 kts 348°
2026-04-22 13:54 39.60682 19.91220 19 ft 3 kts 348°
2026-04-22 13:54 39.60795 19.91191 19 ft 23 kts 349°
2026-04-22 13:54 39.60969 19.91146 19 ft 28 kts 349°
2026-04-22 13:55 39.61158 19.91096 19 ft 14 kts 348°
2026-04-22 13:55 39.61181 19.91089 20 ft 0 kts 345°
2026-04-22 13:56 39.61182 19.91088 20 ft 2 kts 339°
2026-04-22 13:56 39.61210 19.91056 20 ft 6 kts 308°
2026-04-22 13:56 39.61225 19.91012 21 ft 5 kts 282°
2026-04-22 13:56 39.61215 19.90968 21 ft 6 kts 226°
2026-04-22 13:57 39.61154 19.90968 21 ft 0 kts 169°
2026-04-22 13:57 39.61153 19.90968 21 ft 1 kts 169°
2026-04-22 13:57 39.61028 19.91002 20 ft 61 kts 168°
2026-04-22 13:57 39.60298 19.91188 27 ft 147 kts 168°
2026-04-22 13:58 39.59288 19.91510 852 ft 150 kts 155°
2026-04-22 13:58 39.58478 19.92445 1586 ft 170 kts 128°
2026-04-22 13:58 39.57663 19.93667 2233 ft 190 kts 137°
2026-04-22 13:58 39.56586 19.94831 2753 ft 212 kts 142°
2026-04-22 13:59 39.55369 19.96037 3208 ft 226 kts 143°
2026-04-22 13:59 39.54103 19.97283 3889 ft 230 kts 143°
2026-04-22 13:59 39.52833 19.98553 4738 ft 232 kts 143°
2026-04-22 13:59 39.51554 19.99851 5520 ft 236 kts 143°
2026-04-22 14:00 39.50252 20.01184 6258 ft 241 kts 143°
2026-04-22 14:00 39.48925 20.02551 6974 ft 246 kts 144°
2026-04-22 14:00 39.47577 20.03945 7698 ft 250 kts 144°
2026-04-22 14:00 39.46206 20.05365 8444 ft 255 kts 144°
2026-04-22 14:01 39.44812 20.06815 9185 ft 259 kts 145°
2026-04-22 14:01 39.43472 20.08435 9824 ft 274 kts 131°
2026-04-22 14:01 39.42562 20.10710 10195 ft 298 kts 106°
2026-04-22 14:01 39.42272 20.13464 10505 ft 322 kts 93°
2026-04-22 14:02 39.42108 20.16459 10803 ft 346 kts 93°
2026-04-22 14:02 39.41941 20.19671 11067 ft 370 kts 93°
2026-04-22 14:02 39.41762 20.23085 11366 ft 389 kts 93°
2026-04-22 14:02 39.41571 20.26616 12000 ft 397 kts 93°
2026-04-22 14:03 39.41375 20.30203 12743 ft 402 kts 93°
2026-04-22 14:03 39.41174 20.33836 13468 ft 408 kts 93°
2026-04-22 14:03 39.40966 20.37515 14131 ft 413 kts 93°
2026-04-22 14:03 39.40754 20.41243 14735 ft 419 kts 93°
2026-04-22 14:04 39.40538 20.45018 15345 ft 423 kts 93°
2026-04-22 14:04 39.40323 20.48825 15943 ft 428 kts 93°
2026-04-22 14:04 39.40104 20.52689 16536 ft 433 kts 93°
2026-04-22 14:04 39.39878 20.56594 17110 ft 438 kts 93°
2026-04-22 14:05 39.39647 20.60542 17691 ft 443 kts 93°
2026-04-22 14:05 39.39409 20.64534 18242 ft 448 kts 93°
2026-04-22 14:05 39.38918 20.72662 19158 ft 458 kts 93°
2026-04-22 14:06 39.38673 20.76781 19676 ft 461 kts 92°
2026-04-22 14:06 39.38429 20.80925 20188 ft 465 kts 94°
2026-04-22 14:06 39.38178 20.85113 20680 ft 469 kts 92°
2026-04-22 14:06 39.37921 20.89330 21187 ft 473 kts 92°
2026-04-22 14:07 39.37658 20.93588 21699 ft 477 kts 92°
2026-04-22 14:07 39.37392 20.97872 22169 ft 481 kts 93°
2026-04-22 14:07 39.37121 21.02193 22578 ft 485 kts 93°
2026-04-22 14:07 39.36847 21.06562 23005 ft 490 kts 92°
2026-04-22 14:08 39.36571 21.10956 23570 ft 493 kts 92°
2026-04-22 14:08 39.36292 21.15365 24020 ft 495 kts 92°
2026-04-22 14:08 39.36007 21.19832 24443 ft 499 kts 92°
2026-04-22 14:08 39.35721 21.24313 24819 ft 502 kts 93°
2026-04-22 14:09 39.35432 21.28808 24944 ft 502 kts 93°
2026-04-22 14:09 39.35140 21.33306 24973 ft 502 kts 93°
2026-04-22 14:09 39.34845 21.37791 24968 ft 501 kts 93°
2026-04-22 14:09 39.34548 21.42281 24979 ft 501 kts 93°
2026-04-22 14:10 39.34252 21.46762 24974 ft 501 kts 93°
2026-04-22 14:10 39.33955 21.51248 24974 ft 501 kts 93°
2026-04-22 14:10 39.33656 21.55734 24978 ft 502 kts 93°
2026-04-22 14:10 39.33452 21.58767 24972 ft 501 kts 93°
2026-04-22 14:11 39.33151 21.63251 24975 ft 501 kts 93°
2026-04-22 14:11 39.32847 21.67739 24980 ft 502 kts 93°
2026-04-22 14:11 39.32539 21.72225 24981 ft 501 kts 93°
2026-04-22 14:11 39.32232 21.76705 24985 ft 501 kts 93°
2026-04-22 14:12 39.31923 21.81182 24989 ft 500 kts 93°
2026-04-22 14:12 39.31614 21.85654 24989 ft 500 kts 94°
2026-04-22 14:12 39.31301 21.90126 24990 ft 500 kts 94°
2026-04-22 14:12 39.30986 21.94602 24989 ft 500 kts 94°
2026-04-22 14:13 39.30669 21.99077 24991 ft 500 kts 94°
2026-04-22 14:13 39.30350 22.03548 24993 ft 500 kts 94°
2026-04-22 14:13 39.30031 22.08018 24990 ft 500 kts 94°
2026-04-22 14:13 39.29713 22.12483 24995 ft 500 kts 94°
2026-04-22 14:14 39.29395 22.16941 24995 ft 500 kts 94°
2026-04-22 14:14 39.29072 22.21415 24998 ft 500 kts 94°
2026-04-22 14:14 39.28744 22.25879 24998 ft 500 kts 94°
2026-04-22 14:14 39.28416 22.30341 25000 ft 499 kts 94°
2026-04-22 14:15 39.28090 22.34802 25000 ft 499 kts 94°
2026-04-22 14:15 39.27764 22.39267 25002 ft 500 kts 94°
2026-04-22 14:15 39.27437 22.43731 25005 ft 499 kts 94°
2026-04-22 14:15 39.27108 22.48186 25007 ft 499 kts 94°
2026-04-22 14:16 39.26775 22.52642 25005 ft 499 kts 94°
2026-04-22 14:16 39.26438 22.57107 24999 ft 499 kts 94°
2026-04-22 14:16 39.26101 22.61562 25002 ft 499 kts 95°
2026-04-22 14:16 39.25760 22.66017 25004 ft 499 kts 95°
2026-04-22 14:17 39.25417 22.70471 25001 ft 499 kts 95°
2026-04-22 14:17 39.25074 22.74921 25005 ft 499 kts 95°
2026-04-22 14:17 39.24730 22.79356 23838 ft 497 kts 95°
2026-04-22 14:17 39.24382 22.83858 22233 ft 506 kts 95°
2026-04-22 14:18 39.24030 22.88335 21234 ft 499 kts 95°
2026-04-22 14:18 39.23680 22.92758 20290 ft 491 kts 95°
2026-04-22 14:18 39.23334 22.97112 19384 ft 484 kts 95°
2026-04-22 14:18 39.22992 23.01391 18511 ft 477 kts 95°
2026-04-22 14:19 39.22657 23.05581 18052 ft 456 kts 95°
2026-04-22 14:19 39.22342 23.09509 17856 ft 426 kts 95°
2026-04-22 14:19 39.22046 23.13210 17399 ft 408 kts 95°
2026-04-22 14:19 39.21757 23.16812 16667 ft 401 kts 96°
2026-04-22 14:20 39.21192 23.23829 15198 ft 386 kts 96°
2026-04-22 14:20 39.20913 23.27247 14464 ft 380 kts 96°
2026-04-22 14:20 39.20639 23.30610 13748 ft 374 kts 96°
2026-04-22 14:21 39.20099 23.37175 12146 ft 363 kts 96°
2026-04-22 14:21 39.19833 23.40391 11405 ft 359 kts 97°
2026-04-22 14:22 39.19305 23.46697 10277 ft 350 kts 97°
2026-04-22 14:22 39.19045 23.49776 9621 ft 342 kts 97°
2026-04-22 14:22 39.18344 23.55733 8271 ft 329 kts 115°
2026-04-22 14:23 39.17037 23.58032 7612 ft 313 kts 146°
2026-04-22 14:23 39.15121 23.59119 6982 ft 295 kts 177°
2026-04-22 14:23 39.13173 23.58771 6404 ft 277 kts 206°
2026-04-22 14:23 39.11480 23.57728 5892 ft 265 kts 210°
2026-04-22 14:24 39.09893 23.56598 5400 ft 256 kts 211°
2026-04-22 14:24 39.08362 23.55484 4948 ft 250 kts 210°
2026-04-22 14:24 39.06864 23.54417 4489 ft 243 kts 209°
2026-04-22 14:24 39.05392 23.53400 4126 ft 235 kts 208°
2026-04-22 14:25 39.03992 23.52454 3999 ft 218 kts 207°
2026-04-22 14:25 39.02706 23.51595 3807 ft 201 kts 207°
2026-04-22 14:25 39.01514 23.50801 3636 ft 183 kts 209°
2026-04-22 14:25 39.00779 23.49630 3448 ft 167 kts 264°
2026-04-22 14:26 39.01178 23.48381 3158 ft 151 kts 333°
2026-04-22 14:26 39.02082 23.47773 2863 ft 147 kts 336°
2026-04-22 14:26 39.02962 23.47063 2551 ft 150 kts 333°
2026-04-22 14:26 39.03897 23.46556 2208 ft 145 kts 356°
2026-04-22 14:27 39.04885 23.46441 2041 ft 139 kts
2026-04-22 14:27 39.05838 23.46461 1991 ft 138 kts
2026-04-22 14:27 39.06798 23.46528 1789 ft 138 kts 10°
2026-04-22 14:27 39.07765 23.46582 1626 ft 136 kts
2026-04-22 14:28 39.08712 23.46622 1551 ft 136 kts 10°
2026-04-22 14:28 39.09640 23.46793 1480 ft 135 kts 17°
2026-04-22 14:28 39.10530 23.47060 1355 ft 130 kts 22°
2026-04-22 14:28 39.11372 23.47423 1174 ft 125 kts 23°
2026-04-22 14:29 39.12186 23.47812 962 ft 126 kts 25°
2026-04-22 14:29 39.13003 23.48202 812 ft 125 kts 23°
2026-04-22 14:29 39.13831 23.48573 610 ft 124 kts 21°
2026-04-22 14:29 39.14624 23.48927 472 ft 120 kts 23°
2026-04-22 14:30 39.15427 23.49306 326 ft 121 kts 21°
2026-04-22 14:30 39.16215 23.49673 193 ft 120 kts 21°
2026-04-22 14:30 39.16993 23.50037 51 ft 119 kts 22°
2026-04-22 14:30 39.17574 23.50310 40 ft 34 kts 18°
2026-04-22 14:31 39.17736 23.50378 39 ft 22 kts 19°
2026-04-22 14:31 39.17877 23.50440 40 ft 14 kts 18°
2026-04-22 14:31 39.17923 23.50388 42 ft 9 kts 264°
2026-04-22 14:31 39.17922 23.50385 42 ft 0 kts 256°
2026-04-22 14:33 39.17920 23.50373 42 ft 3 kts 257°
2026-04-22 14:34 39.17929 23.50351 41 ft 5 kts 318°
2026-04-22 14:34 39.17965 23.50361 40 ft 7 kts 16°
2026-04-22 14:34 39.17976 23.50337 39 ft 3 kts 268°
2026-04-22 14:34 39.17978 23.50312 39 ft 2 kts 288°
2026-04-22 14:35 39.17983 23.50295 38 ft 2 kts 290°
2026-04-22 14:35 39.17986 23.50284 39 ft 1 kts 290°
2026-04-22 14:35 39.17988 23.50277 39 ft 0 kts 290°
2026-04-22 14:38 39.17989 23.50275 39 ft 1 kts 290°
2026-04-22 14:38 39.17991 23.50267 39 ft 0 kts 290°